Regional Weather Roundup
Issued by NWS

Home | Current Version | Previous Version | Text Only | Print | Product List | Glossary Off
Versions: 1 2 3 4 5 6 7 8 9 10 11 12 13 14 15 16 17 18 19 20 21 22 23 24 25 26 27 28 29 30 31 32 33 34 35 36 37 38 39 40 41 42 43 44 45 46 47 48 49 50

000
ASUS43 KIND 181059
RWRIN

WEATHER ROUNDUP FOR INDIANA
NATIONAL WEATHER SERVICE INDIANAPOLIS IN
600 AM EST SAT NOV 18 2017

NOTE: "FAIR" INDICATES FEW OR NO CLOUDS BELOW 12,000 FEET WITH NO
SIGNIFICANT WEATHER AND/OR OBSTRUCTIONS TO VISIBILITY.

* - STATION DOES NOT REPORT WEATHER SUCH AS PRECIPITATION OR FOG.

+ - STATION NOT QUALITY CONTROLLED BY THE NATIONAL WEATHER SERVICE.
    USE DATA WITH CAUTION...ESPECIALLY DEWPOINT AND RELATIVE
    HUMIDITY OBSERVATIONS.

INZ001>003-010>013-019-020-181200-
NORTHWEST INDIANA

CITY           SKY/WX    TMP DP  RH WIND       PRES   REMARKS
GARY /AIRPORT/ CLOUDY    48  48 100 SE5       29.50F FOG
KNOX *+        CLOUDY    45  43  93 NE5       29.52S
LA PORTE +     DRZL/FOG  43  43  99 SE5       29.51F VSB 1
MICHIGAN CITY+ CLOUDY    43  43 100 CALM      29.51F FOG
MONTICELLO +   LGT RAIN  51  50  95 CALM      29.49F
RENSSELAER +   DRIZZLE   50  45  81 CALM      29.49F

$$

LMZ046-743>745-181200-
SOUTHERN LAKE MICHIGAN

STATION/POSITION TIME  TEMP    WIND        PRES    WAVE
                       AIR SEA DIR/SP/G            HT
                 (UTC) (F)     (DEG/KT/KT) (MB)    (FT)
BURNS HARBOR     1040   47        CALM     1000.0S
MICHIGAN CITY    1030   44     120/  6/  7   N/A

$$

INZ004-005-014>016-021>024-181200-
NORTH CENTRAL INDIANA

CITY           SKY/WX    TMP DP  RH WIND       PRES   REMARKS
GOSHEN         CLOUDY    46  43  89 CALM      29.53S FOG
SOUTH BEND     CLOUDY    43  43 100 SE8       29.52F FOG
WARSAW +       LGT RAIN  45  45 100 CALM      29.52S

$$

INZ006>009-017-018-025>027-181200-
NORTHEAST INDIANA

CITY           SKY/WX    TMP DP  RH WIND       PRES   REMARKS
AUBURN +       LGT RAIN  46  45  93 CALM      29.54R
FORT WAYNE     LGT RAIN  49  48  97 S7        29.53F FOG
KENDALLVILLE + CLOUDY    46  46 100 CALM      29.54R FOG

$$

INZ028-029-035-036-043>045-051>053-181200-
WEST CENTRAL INDIANA

CITY           SKY/WX    TMP DP  RH WIND       PRES   REMARKS
CRAWFORDSVL +  CLOUDY    55  53  91 S16       29.49F
GREENCASTLE +  CLOUDY    59  50  72 S12G17    29.52S
LAFAYETTE      LGT RAIN  51  51 100 S5        29.49F
TERRE HAUTE    CLOUDY    61  52  72 S15G22    29.50F

$$

INZ030>032-037>040-046>048-054>057-064-065-181200-
CENTRAL INDIANA

CITY           SKY/WX    TMP DP  RH WIND       PRES   REMARKS
FRANKFORT +    CLOUDY    58  53  84 W6G23     29.53R
INDIANAPOLIS   CLOUDY    61  52  72 SW22      29.51F
-EAGLE CREEK   CLOUDY    61  51  70 SW16G24   29.50F
KOKOMO +       HVY RAIN  54  53  97 SW14G30   29.53S FOG
SHELBYVILLE    CLOUDY    56  45  66 S16       29.53F

$$

INZ033-034-041-042-049-050-058-059-181200-
EAST CENTRAL INDIANA

CITY           SKY/WX    TMP DP  RH WIND       PRES   REMARKS
MUNCIE         CLOUDY    52  47  83 S13       29.51F
RICHMOND +     CLOUDY    50  45  81 S16       29.57F

$$

INZ060-061-067>069-081>083-085>088-181200-
SOUTHWEST INDIANA

CITY           SKY/WX    TMP DP  RH WIND       PRES   REMARKS
EVANSVILLE     CLOUDY    64  56  75 S15G24    29.58F
HUNTINGBURG +  CLOUDY    62  53  72 S20       29.60F

$$

INZ062-063-066-070>080-084-089>092-181200-
SOUTH CENTRAL AND SOUTHEAST INDIANA

CITY           SKY/WX    TMP DP  RH WIND       PRES   REMARKS
BLOOMINGTON    CLOUDY    62  51  67 SW17G31   29.54F
SEYMOUR +      CLOUDY    59  48  67 S14       29.58F

$$





USA.gov is the U.S. government's official web portal to all federal, state and local government web resources and services.